QPF
0.00 0.00 0.00 0.00 0.00 0.00 0.00 0.00 0.00 0.00 0.00 0.00 0.00 0.00 0.00 0.00 0.00 0.00 0.00 0.00 0.00 0.00 0.00 0.01 0.01 0.01 0.00 0.01 0.02 0.03 0.07 0.06 0.07 0.09 0.09 0.09 0.10 0.09 0.07 0.07 0.06 0.07 0.05 0.06
0.00 0.00 0.00 0.00 0.00 0.00 0.00 0.00 0.00 0.00 0.00 0.00 0.00 0.01 0.01 0.00 0.00 0.00 0.00 0.00 0.00 0.00 0.00 0.01 0.01 0.00 0.00 0.01 0.02 0.03 0.05 0.05 0.05 0.07 0.07 0.07 0.08 0.07 0.07 0.06 0.09 0.08 0.06 0.08
0.00 0.00 0.00 0.00 0.00 0.00 0.00 0.00 0.00 0.00 0.00 0.00 0.00 0.03 0.05 0.02 0.01 0.00 0.00 0.00 0.00 0.00 0.01 0.01 0.01 0.00 0.00 0.01 0.01 0.03 0.04 0.03 0.03 0.04 0.04 0.06 0.07 0.06 0.06 0.08 0.09 0.07 0.05 0.05
0.00 0.00 0.00 0.00 0.00 0.00 0.00 0.00 0.00 0.00 0.00 0.00 0.00 0.02 0.05 0.02 0.01 0.00 0.00 0.00 0.00 0.00 0.00 0.01 0.01 0.01 0.01 0.01 0.00 0.02 0.03 0.03 0.03 0.03 0.04 0.04 0.07 0.08 0.09 0.08 0.10 0.09 0.07 0.07
0.00 0.00 0.00 0.00 0.00 0.00 0.00 0.00 0.00 0.00 0.00 0.00 0.00 0.00 0.02 0.02 0.03 0.01 0.00 0.00 0.00 0.00 0.00 0.00 0.00 0.01 0.01 0.00 0.00 0.01 0.02 0.03 0.03 0.03 0.04 0.04 0.05 0.06 0.06 0.08 0.13 0.11 0.09 0.07
0.00 0.00 0.00 0.00 0.00 0.00 0.00 0.00 0.00 0.00 0.00 0.00 0.00 0.00 0.02 0.03 0.04 0.02 0.01 0.00 0.00 0.00 0.01 0.00 0.00 0.00 0.00 0.00 0.00 0.01 0.01 0.02 0.02 0.02 0.02 0.03 0.04 0.05 0.06 0.08 0.10 0.10 0.10 0.08
0.01 0.01 0.00 0.00 0.00 0.00 0.00 0.01 0.01 0.02 0.01 0.01 0.00 0.00 0.00 0.00 0.00 0.00 0.00 0.00 0.00 0.00 0.00 0.00 0.00 0.00 0.00 0.00 0.00 0.01 0.01 0.01 0.02 0.02 0.02 0.02 0.03 0.04 0.05 0.06 0.08 0.08 0.09 0.09
0.00 0.00 0.00 0.00 0.00 0.00 0.00 0.00 0.01 0.01 0.01 0.02 0.01 0.01 0.00 0.00 0.00 0.00 0.00 0.00 0.00 0.00 0.00 0.00 0.00 0.00 0.00 0.00 0.00 0.01 0.01 0.01 0.02 0.02 0.02 0.02 0.03 0.05 0.05 0.05 0.05 0.06 0.07 0.07
0.00 0.00 0.00 0.00 0.00 0.00 0.00 0.00 0.00 0.00 0.01 0.02 0.03 0.02 0.01 0.00 0.00 0.00 0.00 0.00 0.00 0.00 0.00 0.00 0.00 0.00 0.00 0.00 0.00 0.00 0.01 0.02 0.02 0.02 0.03 0.03 0.03 0.04 0.04 0.04 0.06 0.06 0.07 0.06
0.00 0.00 0.00 0.00 0.00 0.00 0.00 0.00 0.00 0.01 0.01 0.01 0.02 0.04 0.05 0.02 0.00 0.00 0.00 0.00 0.00 0.00 0.00 0.01 0.01 0.01 0.00 0.00 0.00 0.00 0.01 0.01 0.01 0.02 0.02 0.03 0.03 0.03 0.03 0.04 0.06 0.06 0.06 0.05
0.00 0.01 0.00 0.00 0.00 0.00 0.00 0.00 0.00 0.01 0.01 0.00 0.01 0.03 0.04 0.02 0.01 0.00 0.00 0.00 0.00 0.00 0.00 0.00 0.01 0.01 0.00 0.00 0.00 0.00 0.01 0.01 0.01 0.02 0.02 0.02 0.04 0.04 0.04 0.04 0.04 0.03 0.03 0.03
0.00 0.00 0.00 0.00 0.00 0.00 0.00 0.00 0.00 0.00 0.00 0.00 0.00 0.02 0.03 0.02 0.01 0.01 0.01 0.02 0.01 0.00 0.00 0.00 0.00 0.00 0.00 0.01 0.01 0.02 0.03 0.02 0.02 0.01 0.02 0.03 0.05 0.06 0.07 0.05 0.04 0.03 0.04 0.04
0.00 0.00 0.01 0.01 0.00 0.00 0.00 0.00 0.00 0.00 0.00 0.00 0.00 0.01 0.01 0.02 0.02 0.01 0.00 0.02 0.01 0.00 0.00 0.01 0.01 0.01 0.01 0.01 0.01 0.01 0.02 0.02 0.02 0.02 0.02 0.03 0.04 0.05 0.07 0.07 0.04 0.04 0.04 0.05
0.00 0.00 0.00 0.01 0.00 0.00 0.00 0.00 0.00 0.00 0.00 0.00 0.00 0.01 0.01 0.02 0.02 0.01 0.00 0.01 0.01 0.00 0.01 0.01 0.01 0.02 0.05 0.05 0.03 0.01 0.01 0.02 0.03 0.03 0.03 0.03 0.03 0.05 0.06 0.06 0.05 0.04 0.04 0.05
0.00 0.00 0.00 0.00 0.00 0.00 0.00 0.00 0.00 0.00 0.00 0.00 0.00 0.00 0.00 0.01 0.02 0.01 0.00 0.01 0.01 0.01 0.02 0.02 0.01 0.02 0.03 0.04 0.04 0.02 0.02 0.02 0.02 0.02 0.02 0.02 0.03 0.04 0.05 0.07 0.06 0.03 0.03 0.04
0.00 0.00 0.00 0.00 0.00 0.00 0.00 0.00 0.00 0.00 0.00 0.00 0.00 0.00 0.01 0.01 0.02 0.01 0.01 0.01 0.01 0.01 0.01 0.01 0.01 0.01 0.02 0.03 0.03 0.02 0.02 0.02 0.03 0.04 0.03 0.02 0.02 0.02 0.03 0.03 0.03 0.03 0.03 0.04
0.00 0.00 0.00 0.00 0.00 0.00 0.00 0.01 0.00 0.00 0.00 0.00 0.00 0.00 0.01 0.02 0.02 0.01 0.00 0.00 0.01 0.01 0.01 0.01 0.01 0.01 0.02 0.02 0.03 0.02 0.02 0.03 0.07 0.09 0.08 0.04 0.02 0.02 0.02 0.02 0.02 0.02 0.03 0.04
0.00 0.00 0.00 0.00 0.00 0.00 0.00 0.00 0.00 0.00 0.00 0.00 0.00 0.00 0.00 0.01 0.00 0.00 0.01 0.01 0.01 0.01 0.01 0.01 0.01 0.01 0.02 0.03 0.03 0.03 0.04 0.08 0.12 0.12 0.09 0.04 0.02 0.01 0.01 0.01 0.02 0.02 0.03 0.03
0.00 0.00 0.00 0.00 0.00 0.00 0.00 0.00 0.00 0.00 0.00 0.00 0.00 0.00 0.00 0.00 0.00 0.01 0.00 0.01 0.02 0.02 0.01 0.01 0.02 0.02 0.03 0.04 0.04 0.04 0.07 0.11 0.13 0.09 0.04 0.02 0.01 0.01 0.01 0.01 0.02 0.03 0.03 0.04
0.00 0.00 0.00 0.00 0.00 0.00 0.00 0.00 0.00 0.00 0.01 0.01 0.00 0.00 0.00 0.01 0.01 0.03 0.02 0.02 0.02 0.01 0.01 0.01 0.02 0.02 0.03 0.03 0.03 0.03 0.06 0.08 0.07 0.04 0.02 0.01 0.01 0.01 0.01 0.01 0.02 0.03 0.04 0.04
0.00 0.00 0.00 0.00 0.00 0.00 0.00 0.00 0.00 0.01 0.01 0.00 0.00 0.00 0.00 0.01 0.02 0.03 0.02 0.02 0.02 0.02 0.01 0.01 0.02 0.03 0.03 0.02 0.03 0.03 0.02 0.03 0.02 0.02 0.02 0.02 0.02 0.01 0.01 0.01 0.02 0.03 0.04 0.05
0.00 0.00 0.00 0.00 0.00 0.01 0.00 0.00 0.00 0.01 0.01 0.00 0.00 0.00 0.01 0.01 0.01 0.02 0.02 0.02 0.01 0.01 0.01 0.02 0.02 0.02 0.01 0.01 0.02 0.02 0.02 0.02 0.02 0.02 0.02 0.01 0.02 0.01 0.01 0.02 0.03 0.04 0.07 0.11
0.00 0.00 0.00 0.00 0.00 0.00 0.00 0.00 0.00 0.00 0.01 0.01 0.00 0.01 0.01 0.01 0.02 0.02 0.01 0.01 0.01 0.01 0.01 0.01 0.01 0.01 0.01 0.02 0.03 0.03 0.02 0.02 0.02 0.03 0.02 0.02 0.01 0.01 0.02 0.04 0.04 0.06 0.08 0.11
0.01 0.00 0.00 0.00 0.00 0.00 0.00 0.00 0.00 0.00 0.00 0.00 0.01 0.01 0.01 0.02 0.02 0.01 0.01 0.01 0.01 0.01 0.01 0.01 0.01 0.01 0.03 0.03 0.03 0.03 0.02 0.01 0.01 0.02 0.02 0.02 0.02 0.02 0.03 0.04 0.04 0.05 0.05 0.05
0.04 0.02 0.01 0.01 0.00 0.00 0.00 0.00 0.00 0.00 0.00 0.00 0.01 0.01 0.01 0.01 0.01 0.02 0.01 0.01 0.02 0.01 0.01 0.01 0.02 0.02 0.03 0.03 0.03 0.03 0.03 0.02 0.01 0.03 0.04 0.03 0.03 0.03 0.03 0.03 0.04 0.03 0.03 0.03
0.04 0.03 0.02 0.02 0.01 0.01 0.01 0.00 0.00 0.00 0.00 0.00 0.01 0.01 0.01 0.02 0.03 0.04 0.03 0.02 0.02 0.01 0.02 0.03 0.03 0.03 0.03 0.03 0.03 0.04 0.03 0.02 0.03 0.04 0.04 0.04 0.03 0.04 0.04 0.04 0.04 0.04 0.04 0.04
MSLP
1003.89 1004.43 1004.79 1004.97 1005.02 1005.02 1005.04 1005.13 1005.33 1005.62 1005.94 1006.26 1006.51 1006.68 1006.77 1006.83 1006.90 1007.07 1007.37 1007.81 1008.40 1009.08 1009.78 1010.44 1010.98 1011.38 1011.63 1011.77 1011.83 1011.87 1011.94 1012.06 1012.23 1012.44 1012.65 1012.84 1012.99 1013.08 1013.12 1013.14 1013.16 1013.21 1013.29 1013.42
1004.35 1004.69 1004.86 1004.88 1004.84 1004.81 1004.86 1005.05 1005.37 1005.78 1006.22 1006.63 1006.94 1007.13 1007.22 1007.26 1007.32 1007.48 1007.79 1008.27 1008.90 1009.62 1010.35 1011.00 1011.51 1011.85 1012.03 1012.07 1012.04 1012.01 1012.03 1012.14 1012.34 1012.59 1012.87 1013.12 1013.31 1013.41 1013.44 1013.41 1013.37 1013.34 1013.36 1013.44
1004.79 1004.90 1004.87 1004.75 1004.63 1004.60 1004.72 1005.03 1005.50 1006.07 1006.64 1007.13 1007.48 1007.66 1007.71 1007.68 1007.68 1007.78 1008.05 1008.52 1009.16 1009.89 1010.65 1011.31 1011.82 1012.13 1012.26 1012.25 1012.17 1012.10 1012.11 1012.22 1012.45 1012.76 1013.09 1013.39 1013.61 1013.72 1013.73 1013.65 1013.54 1013.45 1013.40 1013.41
1005.16 1005.07 1004.86 1004.63 1004.47 1004.47 1004.70 1005.16 1005.80 1006.53 1007.22 1007.78 1008.14 1008.27 1008.23 1008.08 1007.95 1007.94 1008.12 1008.53 1009.15 1009.89 1010.67 1011.36 1011.89 1012.22 1012.34 1012.32 1012.23 1012.15 1012.15 1012.29 1012.55 1012.89 1013.27 1013.61 1013.85 1013.96 1013.94 1013.82 1013.65 1013.49 1013.37 1013.34
1005.42 1005.17 1004.84 1004.54 1004.39 1004.47 1004.83 1005.46 1006.27 1007.14 1007.93 1008.53 1008.86 1008.91 1008.73 1008.42 1008.12 1007.96 1008.02 1008.35 1008.92 1009.66 1010.46 1011.19 1011.77 1012.14 1012.30 1012.31 1012.23 1012.16 1012.18 1012.33 1012.60 1012.97 1013.37 1013.73 1013.98 1014.08 1014.04 1013.89 1013.67 1013.45 1013.29 1013.21
1005.57 1005.21 1004.81 1004.50 1004.39 1004.58 1005.08 1005.87 1006.83 1007.82 1008.69 1009.29 1009.57 1009.51 1009.17 1008.67 1008.18 1007.85 1007.77 1008.00 1008.52 1009.25 1010.07 1010.86 1011.51 1011.95 1012.17 1012.22 1012.18 1012.13 1012.17 1012.32 1012.60 1012.97 1013.37 1013.73 1013.97 1014.07 1014.01 1013.84 1013.60 1013.35 1013.16 1013.05
1005.60 1005.19 1004.78 1004.50 1004.47 1004.77 1005.40 1006.32 1007.40 1008.47 1009.36 1009.94 1010.14 1009.95 1009.46 1008.79 1008.12 1007.63 1007.42 1007.55 1008.02 1008.74 1009.60 1010.44 1011.16 1011.68 1011.98 1012.09 1012.09 1012.07 1012.11 1012.25 1012.52 1012.87 1013.25 1013.59 1013.83 1013.93 1013.87 1013.69 1013.45 1013.21 1013.01 1012.89
1005.58 1005.18 1004.80 1004.57 1004.62 1005.01 1005.73 1006.73 1007.86 1008.95 1009.83 1010.36 1010.47 1010.17 1009.54 1008.73 1007.93 1007.30 1006.99 1007.06 1007.48 1008.20 1009.08 1009.97 1010.76 1011.35 1011.73 1011.91 1011.95 1011.95 1011.99 1012.12 1012.35 1012.68 1013.03 1013.36 1013.59 1013.69 1013.65 1013.50 1013.28 1013.05 1012.87 1012.77
1005.61 1005.24 1004.91 1004.74 1004.84 1005.27 1006.02 1007.02 1008.14 1009.19 1010.01 1010.46 1010.49 1010.10 1009.38 1008.48 1007.60 1006.91 1006.53 1006.55 1006.95 1007.65 1008.54 1009.47 1010.31 1010.97 1011.41 1011.64 1011.73 1011.76 1011.80 1011.92 1012.13 1012.42 1012.75 1013.07 1013.30 1013.42 1013.42 1013.31 1013.14 1012.95 1012.80 1012.72
1005.77 1005.45 1005.18 1005.05 1005.16 1005.57 1006.27 1007.20 1008.21 1009.16 1009.87 1010.24 1010.19 1009.74 1008.99 1008.07 1007.17 1006.46 1006.08 1006.07 1006.45 1007.13 1008.01 1008.95 1009.81 1010.50 1010.99 1011.28 1011.41 1011.47 1011.54 1011.66 1011.86 1012.15 1012.47 1012.79 1013.04 1013.20 1013.24 1013.18 1013.07 1012.94 1012.83 1012.77
1006.14 1005.89 1005.66 1005.53 1005.61 1005.93 1006.51 1007.28 1008.12 1008.90 1009.48 1009.74 1009.63 1009.17 1008.44 1007.56 1006.71 1006.03 1005.66 1005.65 1006.00 1006.65 1007.49 1008.39 1009.24 1009.94 1010.45 1010.79 1010.98 1011.09 1011.20 1011.36 1011.60 1011.90 1012.24 1012.58 1012.87 1013.06 1013.16 1013.17 1013.11 1013.03 1012.97 1012.94
1006.75 1006.57 1006.36 1006.21 1006.20 1006.38 1006.77 1007.32 1007.94 1008.52 1008.93 1009.09 1008.95 1008.51 1007.84 1007.05 1006.29 1005.69 1005.35 1005.33 1005.64 1006.22 1006.98 1007.81 1008.60 1009.28 1009.81 1010.19 1010.45 1010.64 1010.83 1011.06 1011.36 1011.72 1012.11 1012.49 1012.81 1013.06 1013.21 1013.27 1013.26 1013.23 1013.20 1013.20
1007.55 1007.42 1007.23 1007.03 1006.91 1006.92 1007.09 1007.39 1007.77 1008.13 1008.38 1008.45 1008.30 1007.91 1007.34 1006.67 1006.02 1005.50 1005.20 1005.17 1005.41 1005.88 1006.52 1007.23 1007.93 1008.57 1009.09 1009.52 1009.86 1010.15 1010.46 1010.80 1011.20 1011.63 1012.09 1012.52 1012.89 1013.18 1013.37 1013.47 1013.50 1013.50 1013.49 1013.50
1008.45 1008.38 1008.19 1007.94 1007.71 1007.54 1007.49 1007.55 1007.69 1007.85 1007.97 1007.97 1007.82 1007.51 1007.05 1006.53 1006.00 1005.57 1005.29 1005.21 1005.35 1005.68 1006.16 1006.72 1007.31 1007.87 1008.39 1008.85 1009.28 1009.70 1010.14 1010.62 1011.13 1011.67 1012.19 1012.68 1013.09 1013.40 1013.61 1013.72 1013.77 1013.78 1013.79 1013.81
1009.34 1009.32 1009.15 1008.86 1008.53 1008.22 1007.98 1007.83 1007.78 1007.78 1007.78 1007.75 1007.63 1007.41 1007.09 1006.70 1006.29 1005.92 1005.65 1005.51 1005.52 1005.69 1005.98 1006.37 1006.81 1007.29 1007.79 1008.29 1008.81 1009.36 1009.94 1010.56 1011.19 1011.82 1012.41 1012.94 1013.37 1013.68 1013.88 1013.99 1014.03 1014.04 1014.05 1014.07
1010.11 1010.15 1010.00 1009.70 1009.32 1008.91 1008.54 1008.25 1008.05 1007.94 1007.89 1007.85 1007.79 1007.67 1007.47 1007.21 1006.90 1006.59 1006.30 1006.08 1005.96 1005.94 1006.04 1006.25 1006.55 1006.93 1007.40 1007.93 1008.53 1009.19 1009.91 1010.64 1011.38 1012.09 1012.72 1013.26 1013.68 1013.97 1014.14 1014.22 1014.24 1014.24 1014.24 1014.27
1010.71 1010.80 1010.69 1010.41 1010.02 1009.58 1009.14 1008.78 1008.51 1008.35 1008.28 1008.27 1008.27 1008.25 1008.18 1008.03 1007.81 1007.52 1007.21 1006.91 1006.65 1006.46 1006.37 1006.41 1006.57 1006.87 1007.29 1007.85 1008.51 1009.26 1010.07 1010.90 1011.71 1012.45 1013.09 1013.61 1013.99 1014.23 1014.35 1014.39 1014.37 1014.35 1014.35 1014.38
1011.12 1011.25 1011.20 1010.97 1010.62 1010.20 1009.77 1009.39 1009.11 1008.95 1008.90 1008.93 1009.01 1009.08 1009.10 1009.04 1008.88 1008.63 1008.29 1007.92 1007.54 1007.21 1006.97 1006.86 1006.91 1007.13 1007.52 1008.08 1008.78 1009.58 1010.45 1011.32 1012.14 1012.88 1013.49 1013.96 1014.27 1014.44 1014.50 1014.48 1014.44 1014.39 1014.39 1014.44
1011.39 1011.56 1011.57 1011.42 1011.14 1010.77 1010.39 1010.05 1009.80 1009.67 1009.65 1009.72 1009.85 1009.99 1010.09 1010.09 1009.98 1009.74 1009.40 1008.98 1008.52 1008.10 1007.76 1007.55 1007.52 1007.68 1008.05 1008.60 1009.31 1010.13 1011.00 1011.86 1012.66 1013.34 1013.89 1014.27 1014.50 1014.59 1014.58 1014.52 1014.45 1014.40 1014.41 1014.48
1011.59 1011.80 1011.87 1011.80 1011.60 1011.32 1011.01 1010.72 1010.51 1010.40 1010.39 1010.49 1010.65 1010.82 1010.95 1010.99 1010.91 1010.69 1010.35 1009.92 1009.45 1008.99 1008.61 1008.36 1008.30 1008.44 1008.79 1009.33 1010.03 1010.82 1011.66 1012.47 1013.20 1013.80 1014.25 1014.53 1014.67 1014.69 1014.62 1014.53 1014.45 1014.42 1014.45 1014.56
1011.81 1012.04 1012.17 1012.17 1012.05 1011.85 1011.60 1011.35 1011.15 1011.04 1011.03 1011.10 1011.24 1011.40 1011.52 1011.57 1011.51 1011.32 1011.01 1010.62 1010.17 1009.74 1009.39 1009.17 1009.12 1009.28 1009.63 1010.17 1010.84 1011.59 1012.37 1013.09 1013.73 1014.22 1014.56 1014.74 1014.79 1014.74 1014.64 1014.54 1014.47 1014.46 1014.54 1014.69
1012.11 1012.37 1012.53 1012.58 1012.52 1012.36 1012.13 1011.89 1011.68 1011.52 1011.45 1011.45 1011.51 1011.61 1011.69 1011.72 1011.66 1011.51 1011.26 1010.94 1010.58 1010.25 1009.98 1009.85 1009.87 1010.08 1010.46 1011.00 1011.64 1012.34 1013.04 1013.67 1014.19 1014.57 1014.80 1014.89 1014.86 1014.77 1014.65 1014.56 1014.52 1014.56 1014.68 1014.88
1012.54 1012.80 1012.98 1013.05 1013.01 1012.85 1012.61 1012.32 1012.03 1011.78 1011.59 1011.47 1011.41 1011.40 1011.41 1011.39 1011.34 1011.22 1011.05 1010.84 1010.62 1010.43 1010.32 1010.32 1010.46 1010.75 1011.18 1011.73 1012.36 1013.00 1013.61 1014.14 1014.55 1014.82 1014.96 1014.97 1014.89 1014.77 1014.66 1014.59 1014.59 1014.68 1014.86 1015.10
1013.09 1013.34 1013.52 1013.57 1013.50 1013.30 1012.99 1012.61 1012.20 1011.80 1011.45 1011.16 1010.95 1010.80 1010.71 1010.64 1010.58 1010.52 1010.44 1010.37 1010.32 1010.31 1010.38 1010.55 1010.84 1011.24 1011.74 1012.32 1012.93 1013.53 1014.06 1014.50 1014.81 1014.99 1015.04 1014.99 1014.88 1014.75 1014.65 1014.61 1014.66 1014.80 1015.02 1015.30
1013.73 1013.97 1014.11 1014.12 1013.98 1013.69 1013.27 1012.75 1012.19 1011.61 1011.07 1010.60 1010.21 1009.92 1009.72 1009.59 1009.53 1009.53 1009.56 1009.64 1009.77 1009.97 1010.24 1010.60 1011.04 1011.56 1012.14 1012.75 1013.36 1013.91 1014.38 1014.73 1014.96 1015.05 1015.04 1014.95 1014.82 1014.69 1014.61 1014.60 1014.69 1014.86 1015.12 1015.42
1014.42 1014.62 1014.70 1014.64 1014.40 1014.00 1013.45 1012.78 1012.04 1011.29 1010.56 1009.90 1009.35 1008.92 1008.62 1008.46 1008.41 1008.46 1008.61 1008.84 1009.16 1009.55 1010.01 1010.55 1011.14 1011.77 1012.42 1013.06 1013.65 1014.16 1014.57 1014.85 1015.01 1015.04 1014.98 1014.86 1014.72 1014.59 1014.52 1014.53 1014.64 1014.83 1015.10 1015.40
Thickness
5878 5865 5856 5866 5876 5873 5865 5853 5849 5860 5878 5868 5856 5847 5850 5854 5850 5843 5836 5831 5824 5819 5821 5819 5815 5811 5804 5799 5794 5790 5786 5784 5782 5779 5776 5773 5772 5773 5773 5773 5772 5770 5769 5768
5860 5856 5873 5883 5882 5875 5867 5855 5853 5864 5879 5868 5852 5845 5853 5855 5852 5849 5843 5835 5829 5824 5820 5817 5815 5811 5805 5799 5796 5792 5788 5786 5783 5781 5779 5777 5776 5775 5775 5774 5772 5771 5769 5768
5848 5865 5883 5876 5870 5867 5866 5861 5856 5855 5867 5869 5851 5833 5836 5847 5856 5854 5852 5846 5839 5831 5822 5818 5815 5811 5807 5802 5798 5795 5791 5788 5785 5784 5782 5779 5777 5775 5773 5771 5770 5770 5770 5768
5858 5873 5873 5867 5865 5867 5857 5877 5872 5864 5851 5845 5849 5812 5825 5839 5841 5849 5850 5847 5842 5838 5830 5823 5818 5813 5810 5806 5803 5798 5794 5790 5787 5785 5782 5778 5773 5769 5771 5771 5771 5770 5770 5768
5853 5864 5861 5855 5862 5870 5868 5882 5873 5866 5855 5848 5851 5826 5821 5836 5832 5842 5849 5850 5848 5844 5836 5827 5822 5818 5815 5811 5806 5801 5796 5791 5789 5786 5783 5779 5775 5773 5773 5772 5770 5769 5769 5768
5860 5875 5871 5866 5874 5877 5877 5870 5864 5862 5854 5825 5841 5833 5818 5831 5836 5844 5847 5852 5851 5848 5841 5833 5828 5822 5817 5814 5809 5803 5796 5792 5790 5787 5784 5780 5775 5773 5771 5769 5767 5767 5767 5766
5841 5854 5869 5874 5861 5869 5865 5842 5821 5817 5817 5815 5841 5836 5830 5851 5859 5857 5852 5852 5853 5849 5842 5834 5827 5821 5817 5814 5810 5804 5798 5792 5790 5787 5784 5781 5777 5774 5771 5769 5767 5765 5765 5764
5823 5826 5854 5865 5860 5854 5855 5847 5817 5798 5799 5810 5824 5819 5839 5865 5871 5870 5864 5859 5855 5849 5845 5837 5831 5825 5820 5816 5811 5806 5799 5794 5791 5788 5784 5782 5779 5775 5773 5770 5768 5766 5764 5763
5833 5834 5867 5871 5873 5866 5849 5847 5858 5836 5821 5805 5810 5820 5836 5857 5859 5863 5861 5855 5851 5848 5844 5839 5833 5827 5822 5817 5812 5807 5801 5796 5792 5789 5785 5782 5779 5776 5773 5771 5769 5766 5764 5763
5844 5827 5853 5868 5869 5867 5861 5857 5847 5827 5804 5793 5798 5802 5802 5825 5840 5852 5854 5851 5849 5848 5844 5839 5834 5829 5824 5820 5814 5810 5803 5797 5793 5790 5786 5783 5780 5777 5773 5770 5766 5764 5762 5760
5845 5823 5832 5849 5840 5842 5847 5843 5839 5830 5825 5805 5789 5799 5827 5827 5836 5842 5849 5850 5847 5845 5844 5840 5836 5831 5826 5821 5815 5808 5802 5797 5793 5790 5786 5782 5779 5776 5772 5768 5765 5763 5760 5757
5841 5829 5818 5833 5858 5862 5853 5846 5839 5816 5811 5822 5810 5806 5842 5842 5844 5844 5845 5848 5848 5846 5845 5842 5836 5830 5824 5819 5813 5807 5801 5797 5793 5790 5785 5781 5778 5774 5770 5766 5764 5761 5758 5755
5830 5816 5799 5807 5827 5843 5839 5845 5846 5842 5832 5821 5808 5807 5841 5841 5839 5842 5846 5845 5845 5844 5842 5838 5832 5826 5821 5817 5812 5807 5802 5797 5793 5789 5783 5778 5775 5771 5767 5764 5762 5759 5755 5752
5824 5811 5801 5797 5813 5831 5827 5835 5842 5836 5823 5817 5816 5815 5822 5828 5829 5836 5839 5841 5839 5837 5835 5831 5825 5821 5816 5813 5808 5805 5801 5797 5793 5787 5781 5775 5771 5768 5765 5762 5759 5755 5752 5748
5817 5800 5807 5818 5831 5834 5831 5830 5834 5831 5829 5820 5822 5822 5824 5826 5826 5829 5833 5834 5833 5830 5828 5824 5820 5816 5812 5808 5805 5801 5798 5794 5790 5783 5778 5773 5770 5766 5763 5759 5756 5752 5749 5745
5805 5793 5797 5801 5820 5825 5820 5828 5829 5828 5830 5826 5823 5819 5835 5834 5827 5822 5826 5828 5826 5823 5822 5820 5817 5812 5808 5804 5801 5797 5793 5789 5785 5778 5774 5771 5766 5762 5758 5755 5752 5748 5744 5741
5791 5783 5777 5781 5804 5806 5796 5815 5819 5822 5831 5825 5813 5817 5827 5822 5817 5820 5823 5823 5819 5819 5818 5815 5811 5808 5804 5802 5798 5793 5789 5785 5781 5775 5769 5766 5762 5758 5755 5752 5747 5743 5739 5735
5780 5774 5772 5774 5779 5763 5801 5831 5829 5823 5825 5828 5823 5825 5825 5819 5821 5824 5824 5819 5815 5815 5813 5810 5808 5805 5802 5799 5795 5790 5785 5781 5776 5771 5766 5762 5758 5754 5751 5747 5742 5739 5735 5730
5786 5769 5762 5763 5762 5773 5800 5819 5822 5812 5806 5821 5818 5821 5825 5828 5821 5814 5818 5816 5811 5811 5809 5806 5806 5802 5798 5794 5790 5786 5780 5776 5771 5767 5763 5759 5755 5750 5746 5741 5737 5734 5730 5725
5779 5770 5756 5754 5748 5751 5782 5812 5825 5812 5789 5811 5814 5812 5815 5815 5797 5795 5808 5810 5808 5807 5804 5801 5800 5797 5791 5788 5785 5779 5774 5770 5766 5763 5760 5756 5752 5746 5741 5737 5733 5730 5725 5721
5749 5749 5745 5745 5746 5761 5788 5806 5808 5774 5771 5801 5806 5804 5804 5798 5794 5796 5800 5799 5797 5796 5796 5795 5792 5787 5784 5782 5778 5771 5767 5764 5762 5759 5755 5751 5746 5742 5737 5733 5728 5724 5720 5715
5742 5740 5737 5741 5738 5747 5783 5788 5775 5771 5788 5793 5794 5796 5795 5795 5794 5792 5789 5787 5786 5786 5785 5784 5781 5778 5777 5775 5770 5764 5760 5760 5757 5752 5748 5744 5740 5737 5733 5727 5722 5719 5714 5709
5745 5747 5747 5746 5746 5762 5776 5776 5779 5783 5779 5785 5787 5789 5788 5785 5783 5780 5779 5779 5778 5778 5776 5775 5772 5769 5768 5767 5763 5757 5754 5753 5749 5744 5740 5737 5733 5730 5726 5721 5716 5712 5708 5704
5741 5752 5746 5742 5748 5759 5766 5772 5774 5776 5775 5779 5781 5781 5780 5775 5774 5771 5770 5769 5768 5767 5766 5765 5763 5759 5758 5758 5756 5752 5749 5745 5741 5736 5732 5730 5726 5722 5718 5715 5711 5706 5702 5698
5724 5732 5735 5733 5742 5750 5754 5759 5763 5767 5770 5772 5772 5773 5771 5767 5763 5761 5759 5759 5758 5757 5757 5756 5753 5750 5749 5749 5747 5746 5743 5738 5733 5729 5725 5722 5719 5715 5709 5705 5700 5697 5692 5691
5719 5719 5718 5720 5734 5736 5739 5750 5756 5755 5757 5760 5760 5760 5761 5758 5754 5752 5750 5750 5750 5749 5748 5746 5744 5742 5741 5740 5738 5737 5735 5731 5726 5721 5718 5716 5713 5709 5704 5698 5691 5685 5683 5679